Location: Eaton Estates
(41.3089°N, 82.0057°W)
Time: 08:31:28
(UTC+00:00)

Cosmos 1242 Rocket - Pass Details

Date: 17 June 2021
Orbit: 446 x 483 km, 81.2° (Epoch: 27 July)

Event Time Altitude Azimuth Distance (km) Brightness Sun altitude
Rises 08:08:55 0° 336° (NNW) 2,518 6.6 -15.4°
Reaches altitude 10° 08:11:17 10° 322° (NW) 1,643 5.4 -15.2°
Maximum altitude 08:14:10 23° 268° (W) 1,054 3.9 -14.8°
Enters shadow 08:14:36 22° 257° (WSW) 1,071 3.8 -14.8°
